Year,Month,Day,Hour,Minute,Value (Times are PST for temperature in C)
2010,09,22,00,00,8.20
2010,09,22,00,01,8.20
2010,09,22,00,02,8.20
2010,09,22,00,03,8.20
2010,09,22,00,04,8.20
2010,09,22,00,05,8.20
2010,09,22,00,06,8.20
2010,09,22,00,07,8.20
2010,09,22,00,08,8.20
2010,09,22,00,09,8.20
2010,09,22,00,10,8.10
2010,09,22,00,11,8.10
2010,09,22,00,12,8.10
2010,09,22,00,13,8.10
2010,09,22,00,14,8.00
2010,09,22,00,15,8.00
2010,09,22,00,16,8.00
2010,09,22,00,17,8.00
2010,09,22,00,18,8.00
2010,09,22,00,19,8.00
2010,09,22,00,20,8.00
2010,09,22,00,21,8.00
2010,09,22,00,22,7.90
2010,09,22,00,23,7.90
2010,09,22,00,24,7.90
2010,09,22,00,25,7.90
2010,09,22,00,26,7.90
2010,09,22,00,27,7.90
2010,09,22,00,28,7.90
2010,09,22,00,29,7.80
2010,09,22,00,30,7.80
2010,09,22,00,31,7.80
2010,09,22,00,32,7.80
2010,09,22,00,33,7.80
2010,09,22,00,34,7.80
2010,09,22,00,35,7.80
2010,09,22,00,36,7.90
2010,09,22,00,37,7.80
2010,09,22,00,38,7.80
2010,09,22,00,39,7.80
2010,09,22,00,40,7.80
2010,09,22,00,41,7.80
2010,09,22,00,42,7.80
2010,09,22,00,43,7.80
2010,09,22,00,44,7.90
2010,09,22,00,45,7.90
2010,09,22,00,46,7.90
2010,09,22,00,47,7.80
2010,09,22,00,48,7.80
2010,09,22,00,49,7.80
2010,09,22,00,50,7.80
2010,09,22,00,51,7.90
2010,09,22,00,52,7.90
2010,09,22,00,53,7.80
2010,09,22,00,54,7.80
2010,09,22,00,55,7.80
2010,09,22,00,56,7.80
2010,09,22,00,57,7.80
2010,09,22,00,58,7.80
2010,09,22,00,59,7.80
2010,09,22,01,00,7.80
2010,09,22,01,01,7.80
2010,09,22,01,02,7.80
2010,09,22,01,03,7.80
2010,09,22,01,04,7.80
2010,09,22,01,05,7.80
2010,09,22,01,06,7.80
2010,09,22,01,07,7.80
2010,09,22,01,08,7.80
2010,09,22,01,09,7.80
2010,09,22,01,10,7.80
2010,09,22,01,11,7.80
2010,09,22,01,12,7.80
2010,09,22,01,13,7.80
2010,09,22,01,14,7.80
2010,09,22,01,15,7.80
2010,09,22,01,16,7.80
2010,09,22,01,17,7.80
2010,09,22,01,18,7.80
2010,09,22,01,19,7.80
2010,09,22,01,20,7.70
2010,09,22,01,21,7.70
2010,09,22,01,22,7.70
2010,09,22,01,23,7.70
2010,09,22,01,24,7.70
2010,09,22,01,25,7.70
2010,09,22,01,26,7.70
2010,09,22,01,27,7.70
2010,09,22,01,28,7.70
2010,09,22,01,29,7.70
2010,09,22,01,30,7.70
2010,09,22,01,31,7.70
2010,09,22,01,32,7.70
2010,09,22,01,33,7.70
2010,09,22,01,34,7.70
2010,09,22,01,35,7.70
2010,09,22,01,36,7.60
2010,09,22,01,37,7.60
2010,09,22,01,38,7.60
2010,09,22,01,39,7.60
2010,09,22,01,40,7.60
2010,09,22,01,41,7.60
2010,09,22,01,42,7.60
2010,09,22,01,43,7.60
2010,09,22,01,44,7.60
2010,09,22,01,45,7.50
2010,09,22,01,46,7.50
2010,09,22,01,47,7.50
2010,09,22,01,48,7.40
2010,09,22,01,49,7.40
2010,09,22,01,50,7.40
2010,09,22,01,51,7.40
2010,09,22,01,52,7.30
2010,09,22,01,53,7.30
2010,09,22,01,54,7.30
2010,09,22,01,55,7.30
2010,09,22,01,56,7.30
2010,09,22,01,57,7.30
2010,09,22,01,58,7.30
2010,09,22,01,59,7.30
2010,09,22,02,00,7.30
2010,09,22,02,01,7.20
2010,09,22,02,02,7.20
2010,09,22,02,03,7.20
2010,09,22,02,04,7.20
2010,09,22,02,05,7.20
2010,09,22,02,06,7.20
2010,09,22,02,07,7.20
2010,09,22,02,08,7.20
2010,09,22,02,09,7.20
2010,09,22,02,10,7.20
2010,09,22,02,11,7.20
2010,09,22,02,12,7.20
2010,09,22,02,13,7.20
2010,09,22,02,14,7.20
2010,09,22,02,15,7.20
2010,09,22,02,16,7.20
2010,09,22,02,17,7.20
2010,09,22,02,18,7.20
2010,09,22,02,19,7.20
2010,09,22,02,20,7.20
2010,09,22,02,21,7.20
2010,09,22,02,22,7.20
2010,09,22,02,23,7.20
2010,09,22,02,24,7.20
2010,09,22,02,25,7.20
2010,09,22,02,26,7.20
2010,09,22,02,27,7.20
2010,09,22,02,28,7.20
2010,09,22,02,29,7.20
2010,09,22,02,30,7.20
2010,09,22,02,31,7.20
2010,09,22,02,32,7.20
2010,09,22,02,33,7.20
2010,09,22,02,34,7.20
2010,09,22,02,35,7.20
2010,09,22,02,36,7.20
2010,09,22,02,37,7.20
2010,09,22,02,38,7.20
2010,09,22,02,39,7.20
2010,09,22,02,40,7.20
2010,09,22,02,41,7.20
2010,09,22,02,42,7.20
2010,09,22,02,43,7.20
2010,09,22,02,44,7.20
2010,09,22,02,45,7.20
2010,09,22,02,46,7.20
2010,09,22,02,47,7.20
2010,09,22,02,48,7.20
2010,09,22,02,49,7.20
2010,09,22,02,50,7.20
2010,09,22,02,51,7.20
2010,09,22,02,52,7.20
2010,09,22,02,53,7.20
2010,09,22,02,54,7.20
2010,09,22,02,55,7.20
2010,09,22,02,56,7.20
2010,09,22,02,57,7.20
2010,09,22,02,58,7.20
2010,09,22,02,59,7.20
2010,09,22,03,00,7.20
2010,09,22,03,01,7.20
2010,09,22,03,02,7.20
2010,09,22,03,03,7.20
2010,09,22,03,04,7.20
2010,09,22,03,05,7.20
2010,09,22,03,06,7.20
2010,09,22,03,07,7.20
2010,09,22,03,08,7.20
2010,09,22,03,09,7.20
2010,09,22,03,10,7.20
2010,09,22,03,11,7.20
2010,09,22,03,12,7.20
2010,09,22,03,13,7.20
2010,09,22,03,14,7.20
2010,09,22,03,15,7.20
2010,09,22,03,16,7.20
2010,09,22,03,17,7.20
2010,09,22,03,18,7.20
2010,09,22,03,19,7.20
2010,09,22,03,20,7.20
2010,09,22,03,21,7.20
2010,09,22,03,22,7.20
2010,09,22,03,23,7.20
2010,09,22,03,24,7.20
2010,09,22,03,25,7.10
2010,09,22,03,26,7.10
2010,09,22,03,27,7.10
2010,09,22,03,28,7.10
2010,09,22,03,29,7.10
2010,09,22,03,30,7.10
2010,09,22,03,31,7.10
2010,09,22,03,32,7.10
2010,09,22,03,33,7.10
2010,09,22,03,34,7.00
2010,09,22,03,35,7.00
2010,09,22,03,36,7.00
2010,09,22,03,37,7.00
2010,09,22,03,38,7.00
2010,09,22,03,39,7.10
2010,09,22,03,40,7.00
2010,09,22,03,41,7.00
2010,09,22,03,42,7.00
2010,09,22,03,43,7.00
2010,09,22,03,44,7.00
2010,09,22,03,45,6.90
2010,09,22,03,46,6.90
2010,09,22,03,47,6.90
2010,09,22,03,48,6.90
2010,09,22,03,49,6.90
2010,09,22,03,50,6.90
2010,09,22,03,51,6.80
2010,09,22,03,52,6.80
2010,09,22,03,53,6.80
2010,09,22,03,54,6.80
2010,09,22,03,55,6.80
2010,09,22,03,56,6.80
2010,09,22,03,57,6.80
2010,09,22,03,58,6.80
2010,09,22,03,59,6.80
2010,09,22,04,00,6.80
2010,09,22,04,01,6.70
2010,09,22,04,02,6.70
2010,09,22,04,03,6.70
2010,09,22,04,04,6.70
2010,09,22,04,05,6.70
2010,09,22,04,06,6.70
2010,09,22,04,07,6.70
2010,09,22,04,08,6.70
2010,09,22,04,09,6.70
2010,09,22,04,10,6.70
2010,09,22,04,11,6.70
2010,09,22,04,12,6.70
2010,09,22,04,13,6.70
2010,09,22,04,14,6.60
2010,09,22,04,15,6.60
2010,09,22,04,16,6.60
2010,09,22,04,17,6.60
2010,09,22,04,18,6.60
2010,09,22,04,19,6.60
2010,09,22,04,20,6.50
2010,09,22,04,21,6.50
2010,09,22,04,22,6.50
2010,09,22,04,23,6.50
2010,09,22,04,24,6.50
2010,09,22,04,25,6.40
2010,09,22,04,26,6.40
2010,09,22,04,27,6.50
2010,09,22,04,28,6.50
2010,09,22,04,29,6.50
2010,09,22,04,30,6.50
2010,09,22,04,31,6.50
2010,09,22,04,32,6.50
2010,09,22,04,33,6.50
2010,09,22,04,34,6.50
2010,09,22,04,35,6.50
2010,09,22,04,36,6.50
2010,09,22,04,37,6.40
2010,09,22,04,38,6.40
2010,09,22,04,39,6.40
2010,09,22,04,40,6.40
2010,09,22,04,41,6.40
2010,09,22,04,42,6.40
2010,09,22,04,43,6.40
2010,09,22,04,44,6.40
2010,09,22,04,45,6.40
2010,09,22,04,46,6.40
2010,09,22,04,47,6.40
2010,09,22,04,48,6.30
2010,09,22,04,49,6.30
2010,09,22,04,50,6.30
2010,09,22,04,51,6.40
2010,09,22,04,52,6.40
2010,09,22,04,53,6.40
2010,09,22,04,54,6.40
2010,09,22,04,55,6.40
2010,09,22,04,56,6.40
2010,09,22,04,57,6.40
2010,09,22,04,58,6.40
2010,09,22,04,59,6.40
2010,09,22,05,00,6.30
2010,09,22,05,01,6.30
2010,09,22,05,02,6.30
2010,09,22,05,03,6.30
2010,09,22,05,04,6.30
2010,09,22,05,05,6.20
2010,09,22,05,06,6.20
2010,09,22,05,07,6.20
2010,09,22,05,08,6.20
2010,09,22,05,09,6.30
2010,09,22,05,10,6.30
2010,09,22,05,11,6.30
2010,09,22,05,12,6.30
2010,09,22,05,13,6.30
2010,09,22,05,14,6.30
2010,09,22,05,15,6.30
2010,09,22,05,16,6.30
2010,09,22,05,17,6.30
2010,09,22,05,18,6.30
2010,09,22,05,19,6.30
2010,09,22,05,20,6.30
2010,09,22,05,21,6.30
2010,09,22,05,22,6.30
2010,09,22,05,23,6.30
2010,09,22,05,24,6.30
2010,09,22,05,25,6.20
2010,09,22,05,26,6.20
2010,09,22,05,27,6.20
2010,09,22,05,28,6.30
2010,09,22,05,29,6.30
2010,09,22,05,30,6.40
2010,09,22,05,31,6.40
2010,09,22,05,32,6.40
2010,09,22,05,33,6.40
2010,09,22,05,34,6.40
2010,09,22,05,35,6.40
2010,09,22,05,36,6.40
2010,09,22,05,37,6.40
2010,09,22,05,38,6.40
2010,09,22,05,39,6.40
2010,09,22,05,40,6.40
2010,09,22,05,41,6.40
2010,09,22,05,42,6.50
2010,09,22,05,43,6.50
2010,09,22,05,44,6.50
2010,09,22,05,45,6.60
2010,09,22,05,46,6.60
2010,09,22,05,47,6.60
2010,09,22,05,48,6.70
2010,09,22,05,49,6.70
2010,09,22,05,50,6.70
2010,09,22,05,51,6.70
2010,09,22,05,52,6.70
2010,09,22,05,53,6.70
2010,09,22,05,54,6.70
2010,09,22,05,55,6.60
2010,09,22,05,56,6.60
2010,09,22,05,57,6.60
2010,09,22,05,58,6.60
2010,09,22,05,59,6.50
2010,09,22,06,00,6.50
2010,09,22,06,01,6.50
2010,09,22,06,02,6.50
2010,09,22,06,03,6.50
2010,09,22,06,04,6.50
2010,09,22,06,05,6.40
2010,09,22,06,06,6.40
2010,09,22,06,07,6.40
2010,09,22,06,08,6.40
2010,09,22,06,09,6.40
2010,09,22,06,10,6.40
2010,09,22,06,11,6.40
2010,09,22,06,12,6.40
2010,09,22,06,13,6.40
2010,09,22,06,14,6.40
2010,09,22,06,15,6.40
2010,09,22,06,16,6.40
2010,09,22,06,17,6.50
2010,09,22,06,18,6.50
2010,09,22,06,19,6.50
2010,09,22,06,20,6.50
2010,09,22,06,21,6.50
2010,09,22,06,22,6.50
2010,09,22,06,23,6.50
2010,09,22,06,24,6.50
2010,09,22,06,25,6.50
2010,09,22,06,26,6.50
2010,09,22,06,27,6.50
2010,09,22,06,28,6.50
2010,09,22,06,29,6.50
2010,09,22,06,30,6.50
2010,09,22,06,31,6.60
2010,09,22,06,32,6.60
2010,09,22,06,33,6.60
2010,09,22,06,34,6.60
2010,09,22,06,35,6.60
2010,09,22,06,36,6.60
2010,09,22,06,37,6.60
2010,09,22,06,38,6.60
2010,09,22,06,39,6.60
2010,09,22,06,40,6.60
2010,09,22,06,41,6.60
2010,09,22,06,42,6.60
2010,09,22,06,43,6.60
2010,09,22,06,44,6.60
2010,09,22,06,45,6.60
2010,09,22,06,46,6.60
2010,09,22,06,47,6.60
2010,09,22,06,48,6.50
2010,09,22,06,49,6.50
2010,09,22,06,50,6.50
2010,09,22,06,51,6.50
2010,09,22,06,52,6.40
2010,09,22,06,53,6.40
2010,09,22,06,54,6.40
2010,09,22,06,55,6.40
2010,09,22,06,56,6.40
2010,09,22,06,57,6.40
2010,09,22,06,58,6.40
2010,09,22,06,59,6.30
2010,09,22,07,00,6.30
2010,09,22,07,01,6.30
2010,09,22,07,02,6.30
2010,09,22,07,03,6.30
2010,09,22,07,04,6.30
2010,09,22,07,05,6.30
2010,09,22,07,06,6.20
2010,09,22,07,07,6.20
2010,09,22,07,08,6.20
2010,09,22,07,09,6.20
2010,09,22,07,10,6.20
2010,09,22,07,11,6.20
2010,09,22,07,12,6.20
2010,09,22,07,13,6.20
2010,09,22,07,14,6.10
2010,09,22,07,15,6.10
2010,09,22,07,16,6.10
2010,09,22,07,17,6.10
2010,09,22,07,18,6.10
2010,09,22,07,19,6.10
2010,09,22,07,20,6.00
2010,09,22,07,21,6.00
2010,09,22,07,22,6.00
2010,09,22,07,23,6.00
2010,09,22,07,24,6.00
2010,09,22,07,25,6.00
2010,09,22,07,26,6.00
2010,09,22,07,27,6.00
2010,09,22,07,28,6.10
2010,09,22,07,29,6.10
2010,09,22,07,30,6.10
2010,09,22,07,31,6.10
2010,09,22,07,32,6.10
2010,09,22,07,33,6.10
2010,09,22,07,34,6.10
2010,09,22,07,35,6.10
2010,09,22,07,36,6.10
2010,09,22,07,37,6.10
2010,09,22,07,38,6.10
2010,09,22,07,39,6.10
2010,09,22,07,40,6.10
2010,09,22,07,41,6.10
2010,09,22,07,42,6.10
2010,09,22,07,43,6.10
2010,09,22,07,44,6.10
2010,09,22,07,45,6.10
2010,09,22,07,46,6.10
2010,09,22,07,47,6.10
2010,09,22,07,48,6.10
2010,09,22,07,49,6.10
2010,09,22,07,50,6.10
2010,09,22,07,51,6.10
2010,09,22,07,52,6.10
2010,09,22,07,53,6.10
2010,09,22,07,54,6.10
2010,09,22,07,55,6.10
2010,09,22,07,56,6.10
2010,09,22,07,57,6.10
2010,09,22,07,58,6.10
2010,09,22,07,59,6.10
2010,09,22,08,00,6.10
2010,09,22,08,01,6.10
2010,09,22,08,02,6.10
2010,09,22,08,03,6.20
2010,09,22,08,04,6.20
2010,09,22,08,05,6.20
2010,09,22,08,06,6.20
2010,09,22,08,07,6.20
2010,09,22,08,08,6.30
2010,09,22,08,09,6.30
2010,09,22,08,10,6.30
2010,09,22,08,11,6.30
2010,09,22,08,12,6.30
2010,09,22,08,13,6.30
2010,09,22,08,14,6.30
2010,09,22,08,15,6.40
2010,09,22,08,16,6.40
2010,09,22,08,17,6.40
2010,09,22,08,18,6.40
2010,09,22,08,19,6.40
2010,09,22,08,20,6.50
2010,09,22,08,21,6.50
2010,09,22,08,22,6.50
2010,09,22,08,23,6.50
2010,09,22,08,24,6.50
2010,09,22,08,25,6.60
2010,09,22,08,26,6.60
2010,09,22,08,27,6.60
2010,09,22,08,28,6.60
2010,09,22,08,29,6.60
2010,09,22,08,30,6.70
2010,09,22,08,31,6.70
2010,09,22,08,32,6.70
2010,09,22,08,33,6.70
2010,09,22,08,34,6.80
2010,09,22,08,35,6.80
2010,09,22,08,36,6.80
2010,09,22,08,37,6.90
2010,09,22,08,38,6.90
2010,09,22,08,39,7.00
2010,09,22,08,40,7.00
2010,09,22,08,41,7.10
2010,09,22,08,42,7.10
2010,09,22,08,43,7.20
2010,09,22,08,44,7.20
2010,09,22,08,45,7.20
2010,09,22,08,46,7.30
2010,09,22,08,47,7.30
2010,09,22,08,48,7.40
2010,09,22,08,49,7.40
2010,09,22,08,50,7.50
2010,09,22,08,51,7.60
2010,09,22,08,52,7.60
2010,09,22,08,53,7.70
2010,09,22,08,54,7.80
2010,09,22,08,55,7.80
2010,09,22,08,56,7.80
2010,09,22,08,57,7.90
2010,09,22,08,58,7.90
2010,09,22,08,59,8.00
2010,09,22,09,00,8.00
2010,09,22,09,01,8.10
2010,09,22,09,02,8.10
2010,09,22,09,03,8.20
2010,09,22,09,04,8.30
2010,09,22,09,05,8.30
2010,09,22,09,06,8.40
2010,09,22,09,07,8.40
2010,09,22,09,08,8.50
2010,09,22,09,09,8.50
2010,09,22,09,10,8.60
2010,09,22,09,11,8.60
2010,09,22,09,12,8.70
2010,09,22,09,13,8.70
2010,09,22,09,14,8.70
2010,09,22,09,15,8.80
2010,09,22,09,16,8.80
2010,09,22,09,17,8.80
2010,09,22,09,18,8.90
2010,09,22,09,19,8.90
2010,09,22,09,20,9.00
2010,09,22,09,21,9.00
2010,09,22,09,22,9.10
2010,09,22,09,23,9.10
2010,09,22,09,24,9.10
2010,09,22,09,25,9.10
2010,09,22,09,26,9.20
2010,09,22,09,27,9.20
2010,09,22,09,28,9.30
2010,09,22,09,29,9.30
2010,09,22,09,30,9.40
2010,09,22,09,31,9.50
2010,09,22,09,32,9.50
2010,09,22,09,33,9.60
2010,09,22,09,34,9.70
2010,09,22,09,35,9.70
2010,09,22,09,36,9.80
2010,09,22,09,37,9.80
2010,09,22,09,38,9.90
2010,09,22,09,39,10.00
2010,09,22,09,40,10.00
2010,09,22,09,41,10.10
2010,09,22,09,42,10.10
2010,09,22,09,43,10.10
2010,09,22,09,44,10.20
2010,09,22,09,45,10.20
2010,09,22,09,46,10.30
2010,09,22,09,47,10.30
2010,09,22,09,48,10.40
2010,09,22,09,49,10.50
2010,09,22,09,50,10.50
2010,09,22,09,51,10.60
2010,09,22,09,52,10.70
2010,09,22,09,53,10.80
2010,09,22,09,54,10.90
2010,09,22,09,55,10.90
2010,09,22,09,56,11.00
2010,09,22,09,57,11.10
2010,09,22,09,58,11.10
2010,09,22,09,59,11.10
2010,09,22,10,00,11.20
2010,09,22,10,01,11.20
2010,09,22,10,02,11.30
2010,09,22,10,03,11.30
2010,09,22,10,04,11.40
2010,09,22,10,05,11.40
2010,09,22,10,06,11.40
2010,09,22,10,07,11.50
2010,09,22,10,08,11.50
2010,09,22,10,09,11.50
2010,09,22,10,10,11.50
2010,09,22,10,11,11.60
2010,09,22,10,12,11.60
2010,09,22,10,13,11.60
2010,09,22,10,14,11.70
2010,09,22,10,15,11.80
2010,09,22,10,16,11.80
2010,09,22,10,17,11.90
2010,09,22,10,18,12.00
2010,09,22,10,19,12.10
2010,09,22,10,20,12.20
2010,09,22,10,21,12.20
2010,09,22,10,22,12.20
2010,09,22,10,23,12.30
2010,09,22,10,24,12.30
2010,09,22,10,25,12.30
2010,09,22,10,26,12.30
2010,09,22,10,27,12.30
2010,09,22,10,28,12.30
2010,09,22,10,29,12.40
2010,09,22,10,30,12.40
2010,09,22,10,31,12.40
2010,09,22,10,32,12.40
2010,09,22,10,33,12.40
2010,09,22,10,34,12.40
2010,09,22,10,35,12.40
2010,09,22,10,36,12.40
2010,09,22,10,37,12.40
2010,09,22,10,38,12.40
2010,09,22,10,39,12.50
2010,09,22,10,40,12.50
2010,09,22,10,41,12.50
2010,09,22,10,42,12.50
2010,09,22,10,43,12.60
2010,09,22,10,44,12.60
2010,09,22,10,45,12.70
2010,09,22,10,46,12.80
2010,09,22,10,47,12.80
2010,09,22,10,48,12.90
2010,09,22,10,49,13.00
2010,09,22,10,50,13.10
2010,09,22,10,51,13.10
2010,09,22,10,52,13.20
2010,09,22,10,53,13.30
2010,09,22,10,54,13.30
2010,09,22,10,55,13.40
2010,09,22,10,56,13.40
2010,09,22,10,57,13.40
2010,09,22,10,58,13.50
2010,09,22,10,59,13.50
2010,09,22,11,00,13.50
2010,09,22,11,01,13.50
2010,09,22,11,02,13.60
2010,09,22,11,03,13.60
2010,09,22,11,04,13.60
2010,09,22,11,05,13.60
2010,09,22,11,06,13.60
2010,09,22,11,07,13.70
2010,09,22,11,08,13.80
2010,09,22,11,09,13.80
2010,09,22,11,10,13.90
2010,09,22,11,11,14.00
2010,09,22,11,12,14.00
2010,09,22,11,13,14.10
2010,09,22,11,14,14.20
2010,09,22,11,15,14.30
2010,09,22,11,16,14.30
2010,09,22,11,17,14.40
2010,09,22,11,18,14.40
2010,09,22,11,19,14.50
2010,09,22,11,20,14.60
2010,09,22,11,21,14.70
2010,09,22,11,22,14.80
2010,09,22,11,23,14.90
2010,09,22,11,24,15.00
2010,09,22,11,25,15.00
2010,09,22,11,26,15.00
2010,09,22,11,27,15.10
2010,09,22,11,28,15.10
2010,09,22,11,29,15.20
2010,09,22,11,30,15.20
2010,09,22,11,31,15.30
2010,09,22,11,32,15.30
2010,09,22,11,33,15.30
2010,09,22,11,34,15.30
2010,09,22,11,35,15.30
2010,09,22,11,36,15.30
2010,09,22,11,37,15.30
2010,09,22,11,38,15.30
2010,09,22,11,39,15.30
2010,09,22,11,40,15.30
2010,09,22,11,41,15.30
2010,09,22,11,42,15.20
2010,09,22,11,43,15.20
2010,09,22,11,44,15.20
2010,09,22,11,45,15.20
2010,09,22,11,46,15.20
2010,09,22,11,47,15.20
2010,09,22,11,48,15.20
2010,09,22,11,49,15.20
2010,09,22,11,50,15.20
2010,09,22,11,51,15.20
2010,09,22,11,52,15.10
2010,09,22,11,53,15.10
2010,09,22,11,54,15.10
2010,09,22,11,55,15.10
2010,09,22,11,56,15.20
2010,09,22,11,57,15.20
2010,09,22,11,58,15.30
2010,09,22,11,59,15.30
2010,09,22,12,00,15.40
2010,09,22,12,01,15.50
2010,09,22,12,02,15.60
2010,09,22,12,03,15.70
2010,09,22,12,04,15.80
2010,09,22,12,05,15.70
2010,09,22,12,06,15.70
2010,09,22,12,07,15.70
2010,09,22,12,08,15.80
2010,09,22,12,09,15.80
2010,09,22,12,10,15.80
2010,09,22,12,11,15.80
2010,09,22,12,12,15.90
2010,09,22,12,13,16.00
2010,09,22,12,14,16.00
2010,09,22,12,15,16.10
2010,09,22,12,16,16.10
2010,09,22,12,17,16.20
2010,09,22,12,18,16.20
2010,09,22,12,19,16.30
2010,09,22,12,20,16.30
2010,09,22,12,21,16.40
2010,09,22,12,22,16.40
2010,09,22,12,23,16.40
2010,09,22,12,24,16.40
2010,09,22,12,25,16.40
2010,09,22,12,26,16.40
2010,09,22,12,27,16.40
2010,09,22,12,28,16.40
2010,09,22,12,29,16.40
2010,09,22,12,30,16.40
2010,09,22,12,31,16.40
2010,09,22,12,32,16.40
2010,09,22,12,33,16.40
2010,09,22,12,34,16.30
2010,09,22,12,35,16.20
2010,09,22,12,36,16.20
2010,09,22,12,37,16.10
2010,09,22,12,38,16.10
2010,09,22,12,39,16.10
2010,09,22,12,40,16.10
2010,09,22,12,41,16.10
2010,09,22,12,42,16.20
2010,09,22,12,43,16.20
2010,09,22,12,44,16.20
2010,09,22,12,45,16.30
2010,09,22,12,46,16.30
2010,09,22,12,47,16.40
2010,09,22,12,48,16.50
2010,09,22,12,49,16.60
2010,09,22,12,50,16.70
2010,09,22,12,51,16.70
2010,09,22,12,52,16.80
2010,09,22,12,53,16.80
2010,09,22,12,54,16.80
2010,09,22,12,55,16.80
2010,09,22,12,56,16.80
2010,09,22,12,57,16.70
2010,09,22,12,58,16.60
2010,09,22,12,59,16.60
2010,09,22,13,00,16.60
2010,09,22,13,01,16.60
2010,09,22,13,02,16.70
2010,09,22,13,03,16.70
2010,09,22,13,04,16.80
2010,09,22,13,05,16.90
2010,09,22,13,06,16.90
2010,09,22,13,07,17.00
2010,09,22,13,08,17.10
2010,09,22,13,09,17.10
2010,09,22,13,10,17.20
2010,09,22,13,11,17.30
2010,09,22,13,12,17.30
2010,09,22,13,13,17.30
2010,09,22,13,14,17.30
2010,09,22,13,15,17.40
2010,09,22,13,16,17.40
2010,09,22,13,17,17.50
2010,09,22,13,18,17.60
2010,09,22,13,19,17.60
2010,09,22,13,20,17.70
2010,09,22,13,21,17.70
2010,09,22,13,22,17.80
2010,09,22,13,23,17.80
2010,09,22,13,24,17.80
2010,09,22,13,25,17.80
2010,09,22,13,26,17.90
2010,09,22,13,27,17.90
2010,09,22,13,28,17.90
2010,09,22,13,29,17.80
2010,09,22,13,30,17.80
2010,09,22,13,31,17.80
2010,09,22,13,32,17.90
2010,09,22,13,33,17.90
2010,09,22,13,34,18.00
2010,09,22,13,35,18.00
2010,09,22,13,36,18.00
2010,09,22,13,37,18.00
2010,09,22,13,38,18.10
2010,09,22,13,39,18.10
2010,09,22,13,40,18.10
2010,09,22,13,41,18.10
2010,09,22,13,42,18.20
2010,09,22,13,43,18.20
2010,09,22,13,44,18.20
2010,09,22,13,45,18.20
2010,09,22,13,46,18.20
2010,09,22,13,47,18.20
2010,09,22,13,48,18.10
2010,09,22,13,49,18.00
2010,09,22,13,50,18.00
2010,09,22,13,51,17.90
2010,09,22,13,52,17.80
2010,09,22,13,53,17.80
2010,09,22,13,54,17.70
2010,09,22,13,55,17.60
2010,09,22,13,56,17.60
2010,09,22,13,57,17.60
2010,09,22,13,58,17.50
2010,09,22,13,59,17.50
2010,09,22,14,00,17.50
2010,09,22,14,01,17.60
2010,09,22,14,02,17.60
2010,09,22,14,03,17.60
2010,09,22,14,04,17.60
2010,09,22,14,05,17.60
2010,09,22,14,06,17.60
2010,09,22,14,07,17.60
2010,09,22,14,08,17.60
2010,09,22,14,09,17.60
2010,09,22,14,10,17.70
2010,09,22,14,11,17.70
2010,09,22,14,12,17.80
2010,09,22,14,13,17.80
2010,09,22,14,14,17.80
2010,09,22,14,15,17.90
2010,09,22,14,16,17.90
2010,09,22,14,17,18.00
2010,09,22,14,18,18.10
2010,09,22,14,19,18.20
2010,09,22,14,20,18.30
2010,09,22,14,21,18.30
2010,09,22,14,22,18.30
2010,09,22,14,23,18.30
2010,09,22,14,24,18.40
2010,09,22,14,25,18.40
2010,09,22,14,26,18.40
2010,09,22,14,27,18.40
2010,09,22,14,28,18.30
2010,09,22,14,29,18.30
2010,09,22,14,30,18.30
2010,09,22,14,31,18.30
2010,09,22,14,32,18.30
2010,09,22,14,33,18.30
2010,09,22,14,34,18.30
2010,09,22,14,35,18.20
2010,09,22,14,36,18.30
2010,09,22,14,37,18.30
2010,09,22,14,38,18.30
2010,09,22,14,39,18.20
2010,09,22,14,40,18.20
2010,09,22,14,41,18.20
2010,09,22,14,42,18.30
2010,09,22,14,43,18.30
2010,09,22,14,44,18.40
2010,09,22,14,45,18.40
2010,09,22,14,46,18.40
2010,09,22,14,47,18.40
2010,09,22,14,48,18.40
2010,09,22,14,49,18.30
2010,09,22,14,50,18.40
2010,09,22,14,51,18.40
2010,09,22,14,52,18.40
2010,09,22,14,53,18.30
2010,09,22,14,54,18.30
2010,09,22,14,55,18.30
2010,09,22,14,56,18.30
2010,09,22,14,57,18.40
2010,09,22,14,58,18.40
2010,09,22,14,59,18.40
2010,09,22,15,00,18.50
2010,09,22,15,01,18.60
2010,09,22,15,02,18.70
2010,09,22,15,03,18.80
2010,09,22,15,04,18.90
2010,09,22,15,05,19.00
2010,09,22,15,06,19.10
2010,09,22,15,07,19.10
2010,09,22,15,08,19.10
2010,09,22,15,09,19.10
2010,09,22,15,10,19.20
2010,09,22,15,11,19.10
2010,09,22,15,12,19.10
2010,09,22,15,13,19.00
2010,09,22,15,14,18.90
2010,09,22,15,15,18.90
2010,09,22,15,16,18.90
2010,09,22,15,17,18.80
2010,09,22,15,18,18.80
2010,09,22,15,19,18.70
2010,09,22,15,20,18.60
2010,09,22,15,21,18.60
2010,09,22,15,22,18.50
2010,09,22,15,23,18.50
2010,09,22,15,24,18.30
2010,09,22,15,25,18.30
2010,09,22,15,26,18.30
2010,09,22,15,27,18.20
2010,09,22,15,28,18.20
2010,09,22,15,29,18.20
2010,09,22,15,30,18.20
2010,09,22,15,31,18.20
2010,09,22,15,32,18.20
2010,09,22,15,33,18.20
2010,09,22,15,34,18.20
2010,09,22,15,35,18.10
2010,09,22,15,36,18.10
2010,09,22,15,37,18.00
2010,09,22,15,38,17.90
2010,09,22,15,39,18.00
2010,09,22,15,40,18.00
2010,09,22,15,41,18.10
2010,09,22,15,42,18.20
2010,09,22,15,43,18.20
2010,09,22,15,44,18.30
2010,09,22,15,45,18.40
2010,09,22,15,46,18.40
2010,09,22,15,47,18.40
2010,09,22,15,48,18.40
2010,09,22,15,49,18.30
2010,09,22,15,50,18.30
2010,09,22,15,51,18.20
2010,09,22,15,52,18.10
2010,09,22,15,53,18.10
2010,09,22,15,54,18.00
2010,09,22,15,55,17.80
2010,09,22,15,56,17.80
2010,09,22,15,57,17.80
2010,09,22,15,58,17.80
2010,09,22,15,59,17.80
2010,09,22,16,00,17.80
2010,09,22,16,01,17.80
2010,09,22,16,02,17.80
2010,09,22,16,03,17.80
2010,09,22,16,04,17.80
2010,09,22,16,05,17.80
2010,09,22,16,06,17.90
2010,09,22,16,07,17.90
2010,09,22,16,08,17.90
2010,09,22,16,09,17.80
2010,09,22,16,10,17.80
2010,09,22,16,11,17.80
2010,09,22,16,12,17.70
2010,09,22,16,13,17.70
2010,09,22,16,14,17.70
2010,09,22,16,15,17.60
2010,09,22,16,16,17.50
2010,09,22,16,17,17.40
2010,09,22,16,18,17.40
2010,09,22,16,19,17.40
2010,09,22,16,20,17.40
2010,09,22,16,21,17.40
2010,09,22,16,22,17.50
2010,09,22,16,23,17.60
2010,09,22,16,24,17.60
2010,09,22,16,25,17.70
2010,09,22,16,26,17.80
2010,09,22,16,27,18.00
2010,09,22,16,28,18.10
2010,09,22,16,29,18.10
2010,09,22,16,30,18.20
2010,09,22,16,31,18.30
2010,09,22,16,32,18.30
2010,09,22,16,33,18.30
2010,09,22,16,34,18.30
2010,09,22,16,35,18.30
2010,09,22,16,36,18.30
2010,09,22,16,37,18.20
2010,09,22,16,38,18.20
2010,09,22,16,39,18.10
2010,09,22,16,40,18.10
2010,09,22,16,41,18.10
2010,09,22,16,42,18.10
2010,09,22,16,43,18.20
2010,09,22,16,44,18.20
2010,09,22,16,45,18.20
2010,09,22,16,46,18.30
2010,09,22,16,47,18.40
2010,09,22,16,48,18.40
2010,09,22,16,49,18.40
2010,09,22,16,50,18.40
2010,09,22,16,51,18.40
2010,09,22,16,52,18.40
2010,09,22,16,53,18.40
2010,09,22,16,54,18.40
2010,09,22,16,55,18.40
2010,09,22,16,56,18.40
2010,09,22,16,57,18.40
2010,09,22,16,58,18.30
2010,09,22,16,59,18.30
2010,09,22,17,00,18.20
2010,09,22,17,01,18.20
2010,09,22,17,02,18.10
2010,09,22,17,03,18.00
2010,09,22,17,04,17.90
2010,09,22,17,05,17.80
2010,09,22,17,06,17.70
2010,09,22,17,07,17.70
2010,09,22,17,08,17.70
2010,09,22,17,09,17.60
2010,09,22,17,10,17.60
2010,09,22,17,11,17.50
2010,09,22,17,12,17.40
2010,09,22,17,13,17.40
2010,09,22,17,14,17.40
2010,09,22,17,15,17.30
2010,09,22,17,16,17.30
2010,09,22,17,17,17.30
2010,09,22,17,18,17.30
2010,09,22,17,19,17.30
2010,09,22,17,20,17.30
2010,09,22,17,21,17.20
2010,09,22,17,22,17.20
2010,09,22,17,23,17.20
2010,09,22,17,24,17.10
2010,09,22,17,25,17.10
2010,09,22,17,26,17.00
2010,09,22,17,27,16.90
2010,09,22,17,28,16.90
2010,09,22,17,29,16.90
2010,09,22,17,30,16.80
2010,09,22,17,31,16.80
2010,09,22,17,32,16.80
2010,09,22,17,33,16.80
2010,09,22,17,34,16.70
2010,09,22,17,35,16.60
2010,09,22,17,36,16.60
2010,09,22,17,37,16.60
2010,09,22,17,38,16.50
2010,09,22,17,39,16.50
2010,09,22,17,40,16.50
2010,09,22,17,41,16.40
2010,09,22,17,42,16.40
2010,09,22,17,43,16.40
2010,09,22,17,44,16.30